Погода в Апуке

Погода в Апуке : погода сейчас, прогноз погоды и архив. Всё, что Вы хотите узнать о погоде в Апуке!

Хотите узнать прогноз погоды в Апуке? Тогда Вам сюда: Погода в Апуке

Поиск расширенной информации на нашем сайте:

Другие новости

Новости СМИ2

Главная страница сайта

Новости сайта

02.10.2013

Напоминаем, что на нашем новом сайте вы можете получить высокодетализированные прогнозы погоды по пунктам России, СНГ и мира (включающие важные для авиации метеовеличины, такие как направление и скорость ветра, видимость, явления погоды, количество и форма облачности, нижняя и верхняя граница облачности), а также ознакомиться с разнообразными материалами по авиационной метеорологии и подборкой полезных ссылок на эту тему.

Сайт Метеоцентр.Азия посвящён разработке технологий оптимизации авиаметеорологического обслуживания, включая проектирование и перспективное создание нескольких автоматизированных авиаметеорологических систем:
- система выпуска высокодетальных прогностических карт явлений погоды для нижнего воздушного пространства по России и ближнему зарубежью;
- система верификации прогнозов TAF (выпускаемых синоптиками официальных АМСГ РФ и ближнего зарубежья) и AUTOTAF (выпускаемых сайтом Метеоцентр.Азия) - выявление ошибок, онлайн-сопоставление с фактической погодой METAR, автоматическое внесение коррективов в прогнозы при резком отклонении фактической погоды от прогноза, подсчёт оправдываемости прогнозов по элементам и в целом;
- система обработки, анализа и отображения авиаметеорологической информации для применения провайдерами метеорологической информации.

Рекомендуем: хофитол при беременности

Погода в Апуке - сегодня

Время (UTC), дата Ветер
(°,м/с) 
Видим.   Явления Облачность Т
(°С)
Тd
(°С)
f(%) Тe
(°С)
Pmin
(гПа)
dP
(гПа)
Po
(мм)
O2
(г/м3)
Тmin Tmax R s Состояние
почвы
18 25.05.17 180 (Ю) 20000 м    9/6 600 м верхняя 
[Sc|Ci fib]
+3.8 -1.4 69 +2  1010.3  -0.4  757  301           
21 25.05.17 180 (Ю) 20000 м    ясно 
+3.7 -0.9 72 +1  1009.8  -0.5  757  301  +1.9      мокрый или
старый снег
10-40% 
00 26.05.17 320 (СЗ) 8{12}  20000 м    4/4 600 м 
[Sc]
+4.4 -1 68 +1  1009.5  -0.3  757  300           
03 26.05.17 320 (СЗ) 20000 м    ясно 
+5.2 -0.3 68 +3  1008.8    756  299      700     
06 26.05.17 320 (СЗ) 20000 м    ясно 
+3.9 -1.6 67 +3  1007.9  -0.9  755  300           
09 26.05.17 020 (С) 20000 м    9/6 600 м верхняя 
[Sc|Ci fib]
+2.2 -3.4 66 1008.4  0.5  756  303    +5.2       
12 26.05.17 тихо ()   20000 м    9/1 600 м верхняя 
[Sc|Ci fib]
+1.1 -3.8 70 +1  1007.6  -0.8  755  304           
15 26.05.17 180 (Ю) 20000 м    9/0 верхняя 
[Ci fib]
+0.9 -4.4 68 1007.2  -0.4  755  304           
18 26.05.17 180 (Ю) 20000 м    ясно 
+2.9 -2.2 69 +1  1007.2  755  301           
00 27.05.17 320 (СЗ) 20000 м    10/10 600 м 
[Sc]
+5.1 -0.2 69 +3  1007.3  0.5  755  299           
03 27.05.17 230 (ЮЗ) 20000 м    10/10 600 м 
[Sc]
+6.2 +0.6 67 +6  1006.5  -0.8  754  297           
06 27.05.17 180 (Ю) 20000 м    10/10 600 м 
[Sc]
+3.9 -1.3 69 +2  1006.1  -0.4  754  300           
12 27.05.17 180 (Ю) 20000 м    10/10 600 м 
[Sc]
+1 -4.3 68 -1  1004  -1  753  303           
15 27.05.17 180 (Ю) 20000 м    10/10 600 м 
[Sc]
+0.8 -3.8 71 1003.3  -0.6  752  303           
18 27.05.17 020 (С) 20000 м    10/10 600 м 
[Sc]
+3.8 -1.1 70 +3  1002.7  -0.6  752  299           
00 28.05.17 090 (В) 20000 м    10/10 600 м 
[Sc]
+3.9 -1.3 69 +3  1003.5  0.9  752  299           
03 28.05.17 090 (В) 20000 м    10/10 600 м 
[Sc]
+5.2 +0.3 71 +5  1004  0.5  753  297           
06 28.05.17 020 (С) 20000 м  {ливн. осадки}  10/10 600 м 
[Sc]
+2.9 -1.9 71 +2  1004.2  0.2  753  300           
12 28.05.17 020 (С) 20000 м    10/10 600 м 
[Sc]
+0.9 -4 70 -1  1006.1  1.3  754  303           
15 28.05.17 300 (СЗ) 20000 м    10/10 600 м 
[Sc]
+1 -3.9 70 -1  1006.5  0.1  754  302           
18 28.05.17 320 (СЗ) 20000 м    10/10 600 м 
[Sc]
+3.8 -1.4 69 +2  1007.3  0.8  755  300           
00 29.05.17 020 (С) 20000 м    9/9 600 м 
[Sc]
+5.2 +0.3 71 +5  1008.2  0.8  756  299           
03 29.05.17 020 (С) 20000 м  {ливн. осадки}  10/10 600 м 
[Sc]
+5.8 +0.7 70 +6  1008.6  0.4  756  298           
06 29.05.17 050 (СВ) 20000 м  {ливн. осадки}  10/10 600 м 
[Sc]
+4.9 -0.1 70 +5  1009  0.4  756  299           
12 29.05.17 090 (В) 20000 м    10/10 600 м 
[Sc]
+2 -3 69 +1  1012.1  1.2  759  303           
Время (UTC), дата Ветер
(°,м/с) 
Видим.   Явления Облачность Т
(°С)
Тd
(°С)
f(%) Тe
(°С)
Pmin
(гПа)
dP
(гПа)
Po
(мм)
O2
(г/м3)
Тmin Tmax R s Состояние
почвы

Для получения пояснительной информации подведите курсор к названию столбца.

ПОГОДА в Апуке - архив

Всё, что Вы хотите узнать о погоде в Апуке - удобно и подробно!

Выберите нужную дату (начиная с 1 января 2015* года) и нажмите кнопку "Найти".
Будут отображены архивные сводки погоды по пункту Апука, начиная с указанной даты.


Отображать данные в формате CSV (для использования в таблицах Excel)


Внимание! Наш архив погоды предназначен исключительно для личного некоммерческого использования в познавательных целях. Если Вам необходимы официальные справки о состоянии погоды (для производственных, юридических, коммерческих и т.п. целей), обращайтесь в органы Росгидромета.

*Примечание: данная дата относится к архиву по метеостанциям СССР (Россия, СНГ, Балтия).
Архив по метеостанциям Зарубежной Европы и Азии (кроме Китая) хранится 10 дней, по другим регионам земного шара (Китай, Африка, Америка, Австралия, Океания) - 1 день.

Апука - район местоположения метеостанции


Название, широта, долгота, высота метеостанции:
Апука 60.4°ш. 169.7°д. 5 м над ур. моря [Российская Федерация]

Дополнительная информация

В oтличие oт бoльшинства пoгoдных сайтoв мы публикуем пoдрoбную метеoинфoрмацию в детальнoм прoфессиoнальнoм фoрмате.

Характеристики температуры и влажнoсти вoздуха измеряются на высoте 2 м в тени вдали oт зданий и деревьев.
Скoрoсть ветра измеряется на высoте 10 м (на урoвне рoста челoвека скoрoсть ветра ниже в 1.5-2 раза). Если метеoстанция нахoдится в гoрoде или в лесу, тo скoрoсть ветра занижена на 2-4 м/с пo сравнению с oткрытым местoм. Скoрoсть ветра над акватoриями крупных рек и oзёр, а также на вершинах хoлмoв на 2-5 м/с выше, чем в oбычных услoвиях.
Атмoсфернoе давление в разных тoчках местнoсти мoжет значительнo oтличаться oт давления на метеoстанции, в зависимoсти oт услoвий рельефа (при пoдъёме на 10 м давление пoнижается примернo на 1 мм рт.ст.).